Location: Byszew
(52.1813°N, 19.2693°E)
Time: 19:06:38
(UTC+00:00)

Cosmos 1295 Rocket - Pass Details

Date: 03 March 2021
Orbit: 943 x 994 km, 82.9° (Epoch: 17 April)

Event Time Altitude Azimuth Distance (km) Brightness Sun altitude
Rises 17:36:30 0° 180° (S) 3,675 7.5 -11.6°
Reaches altitude 10° 17:39:01 10° 178° (S) 2,724 6.8 -11.9°
Maximum altitude 17:45:13 72° 96° (E) 1,021 4.4 -12.9°
Drops below altitude 10° 17:51:23 10° 13° (NNE) 2,708 6.8 -13.8°
Sets 17:53:53 0° 12° (NNE) 3,651 7.5 -14.2°
